Trenton, NJ

12:28 AM EST on December 14, 2017 (GMT -0500)
Trenton Mercer

Weather History for KTTN - October, 2014

Change the Weather History Date:

Wednesday, October 1, 2014

  Actual Average Record
Temperature  
Mean Temperature 65 °F 60 °F  
Max Temperature 69 °F 70 °F 86 °F (1897)
Min Temperature 60 °F 50 °F 33 °F (1993)
Degree Days  
Heating Degree Days 0 6  
Month to date heating degree days 0 6  
Since 1 July heating degree days 48 71  
Cooling Degree Days 0 1  
Month to date cooling degree days 0 1  
Year to date cooling degree days 916 956  
Growing Degree Days 14 (Base 50)    
Moisture  
Dew Point 57 °F    
Average Humidity 79    
Maximum Humidity 90    
Minimum Humidity 68    
Precipitation  
Precipitation 0.00 in 0.15 in 2.71 in (2010)
Month to date precipitation 0.00 0.15  
Year to date precipitation 32.51 35.40  
Sea Level Pressure  
Sea Level Pressure 30.01 in    
Wind  
Wind Speed 7 mph (NE)    
Max Wind Speed 13 mph    
Max Gust Speed 18 mph    
Visibility 10 miles    
Events      
T = Trace of Precipitation, MM = Missing Value Source: NWS Daily Summary

Daily Weather History Graph

Daily Weather History Graph

Search for Another Location

Airport or City:

Trip Planner

Search our weather history database for the weather conditions in past years. The results will help you decide how hot, cold, wet, or windy it might be!

Date:

Astronomy

Oct. 01, 2014 Rise Set
Actual Time 6:55 AM EDT 6:41 PM EDT
Civil Twilight 6:28 AM EDT 7:08 PM EDT
Nautical Twilight 5:56 AM EDT 7:40 PM EDT
Astronomical Twilight 5:25 AM EDT 8:11 PM EDT
Moon 1:54 PM EDT (10/1) No Moon Set
Length of Visible Light 12h 40m
Length of Day
11h 45m
Waxing Crescent, 48% of the Moon is Illuminated
Oct 1
Waxing Crescent
Oct 1
First Quarter
Oct 8
Full
Oct 15
Last Quarter
Oct 23
New

Hourly Weather History & Observations

Time (EDT) Temp. Dew Point Humidity Pressure Visibility Wind Dir Wind Speed Gust Speed Precip Events Conditions
12:53 AM 63.0 °F 57.9 °F 84% 29.95 in 10.0 mi NE 4.6 mph - N/A   Overcast
1:27 AM 62.1 °F 57.9 °F 86% 29.98 in 10.0 mi NNW 3.5 mph - N/A   Overcast
1:53 AM 64.9 °F 62.1 °F 90% 29.91 in 5.0 mi Calm Calm - N/A   Clear
2:53 AM 62.1 °F 57.9 °F 86% 29.96 in 10.0 mi North 5.8 mph - N/A   Overcast
3:53 AM 62.1 °F 57.0 °F 84% 29.95 in 10.0 mi NNE 4.6 mph - N/A   Overcast
4:53 AM 61.0 °F 57.0 °F 87% 29.96 in 10.0 mi NE 8.1 mph - N/A   Overcast
5:16 AM 62.1 °F 57.0 °F 84% 29.98 in 10.0 mi NNE 5.8 mph - N/A   Overcast
5:42 AM 61.0 °F 57.0 °F 87% 29.98 in 10.0 mi North 4.6 mph - N/A   Overcast
5:53 AM 61.0 °F 57.0 °F 87% 29.96 in 10.0 mi NNE 6.9 mph - N/A   Overcast
6:07 AM 61.0 °F 55.9 °F 83% 29.98 in 10.0 mi NNE 6.9 mph - N/A   Overcast
6:53 AM 61.0 °F 55.9 °F 83% 29.98 in 10.0 mi NE 4.6 mph - N/A   Scattered Clouds
7:00 AM 61.0 °F 55.9 °F 83% 30.00 in 10.0 mi NNE 3.5 mph - N/A   Mostly Cloudy
7:41 AM 60.1 °F 55.9 °F 86% 30.01 in 9.0 mi NE 4.6 mph - N/A   Scattered Clouds
8:53 AM 62.1 °F 55.0 °F 78% 30.01 in 10.0 mi NE 6.9 mph - N/A   Clear
9:53 AM 66.0 °F 55.9 °F 70% 30.02 in 10.0 mi NE 6.9 mph - N/A   Mostly Cloudy
10:02 AM 66.0 °F 55.9 °F 70% 30.04 in 10.0 mi NE 10.4 mph - N/A   Overcast
10:53 AM 66.9 °F 55.9 °F 68% 30.03 in 10.0 mi ENE 10.4 mph - N/A   Overcast
11:53 AM 66.0 °F 55.9 °F 70% 30.03 in 10.0 mi NE 6.9 mph - N/A   Overcast
12:53 PM 64.9 °F 55.9 °F 73% 30.02 in 10.0 mi ENE 9.2 mph - N/A   Overcast
1:53 PM 66.0 °F 55.9 °F 70% 30.01 in 10.0 mi Variable 5.8 mph - N/A   Overcast
2:53 PM 66.0 °F 57.0 °F 73% 30.00 in 10.0 mi NNE 10.4 mph - N/A   Overcast
3:53 PM 66.9 °F 57.0 °F 70% 30.00 in 10.0 mi NNE 8.1 mph - N/A   Overcast
4:53 PM 66.9 °F 55.9 °F 68% 30.00 in 10.0 mi ENE 8.1 mph - N/A   Overcast
5:21 PM 66.9 °F 57.0 °F 70% 30.02 in 10.0 mi ENE 6.9 mph - N/A   Overcast
5:29 PM 66.9 °F 57.0 °F 70% 30.02 in 10.0 mi NE 8.1 mph - N/A   Overcast
5:40 PM 68.0 °F 57.0 °F 68% 30.02 in 10.0 mi ENE 9.2 mph - N/A   Overcast
5:53 PM 66.9 °F 55.9 °F 68% 30.01 in 10.0 mi NE 11.5 mph - N/A   Overcast
6:53 PM 64.9 °F 55.9 °F 73% 30.02 in 10.0 mi NE 5.8 mph - N/A   Overcast
7:53 PM 64.0 °F 57.0 °F 78% 30.04 in 10.0 mi ENE 5.8 mph - N/A   Overcast
8:43 PM 64.0 °F 57.0 °F 78% 30.06 in 10.0 mi ENE 5.8 mph - N/A   Overcast
8:53 PM 64.0 °F 57.0 °F 78% 30.04 in 10.0 mi ENE 5.8 mph - N/A   Overcast
9:28 PM 64.0 °F 57.0 °F 78% 30.06 in 10.0 mi NE 5.8 mph - N/A   Overcast
9:53 PM 64.0 °F 57.0 °F 78% 30.05 in 10.0 mi NNE 3.5 mph - N/A   Overcast
10:15 PM 64.0 °F 57.0 °F 78% 30.07 in 10.0 mi ENE 3.5 mph - N/A   Overcast
10:53 PM 63.0 °F 57.9 °F 84% 30.05 in 10.0 mi NNE 5.8 mph - N/A   Overcast
11:53 PM 62.1 °F 57.0 °F 84% 30.05 in 10.0 mi NNE 6.9 mph - N/A   Overcast